This is the latest recevied weather packets stored in our database for station/object K8RRT. If no packets are shown the sender has not sent any weather packets the latest 10 day(s).
| Time | Temp. | Humidity | Pressure | Rain* | Wind** | Luminosity | Snow |
|---|---|---|---|---|---|---|---|
| 1777419565 | 22.78° C | 70% | 1009.3 hPa | 0 mm | - | 20 W/m² | - |
| 1777419263 | 22.78° C | 69% | 1009 hPa | 0 mm | - | 28 W/m² | - |
| 1777418961 | 22.78° C | 69% | 1009.1 hPa | 0 mm | - | 29 W/m² | - |
| 1777418655 | 22.78° C | 70% | 1008.9 hPa | 0 mm | - | 35 W/m² | - |
| 1777418352 | 23.33° C | 68% | 1008.7 hPa | 0 mm | - | 42 W/m² | - |
| 1777418048 | 23.33° C | 68% | 1008.4 hPa | 0 mm | - | 52 W/m² | - |
| 1777417744 | 23.33° C | 67% | 1008.4 hPa | 0 mm | - | 54 W/m² | - |
| 1777417439 | 23.33° C | 66% | 1008.2 hPa | 0 mm | - | 70 W/m² | - |
| 1777417136 | 23.33° C | 66% | 1008.5 hPa | 0 mm | - | 43 W/m² | - |
| 1777416831 | 23.33° C | 66% | 1008.4 hPa | 0 mm | - | 41 W/m² | - |
| 1777416528 | 23.89° C | 64% | 1008.5 hPa | 0 mm | - | 49 W/m² | - |
| 1777416224 | 25° C | 63% | 1008.6 hPa | 0 mm | - | 57 W/m² | - |
| 1777415923 | 24.44° C | 63% | 1008.8 hPa | 0 mm | - | 166 W/m² | - |
| 1777415619 | 24.44° C | 63% | 1008.9 hPa | 0 mm | - | 178 W/m² | - |
| 1777415315 | 25° C | 62% | 1009.1 hPa | 0 mm | - | 196 W/m² | - |
| 1777415010 | 25° C | 63% | 1008.7 hPa | 0 mm | - | 206 W/m² | - |
| 1777414709 | 25° C | 65% | 1008.9 hPa | 0 mm | - | 221 W/m² | - |
| 1777414405 | 25° C | 65% | 1009.2 hPa | 0 mm | - | 225 W/m² | - |
| 1777414105 | 25° C | 63% | 1009.1 hPa | 0 mm | - | 232 W/m² | - |
| 1777413800 | 25° C | 64% | 1009.1 hPa | 0 mm | - | 288 W/m² | - |
| 1777413495 | 24.44° C | 63% | 1009.3 hPa | 0 mm | - | 292 W/m² | - |
| 1777413192 | 25° C | 64% | 1009.4 hPa | 0 mm | - | 283 W/m² | - |
| 1777412887 | 25° C | 64% | 1009.6 hPa | 0 mm | - | 316 W/m² | - |
| 1777412582 | 25° C | 63% | 1009.6 hPa | 0 mm | - | 344 W/m² | - |
| 1777412278 | 25° C | 65% | 1010 hPa | 0 mm | - | 331 W/m² | - |
* Rain latest hour (hover to see other rain measurements)
** Current wind speed in m/s (hover to see current wind gust speed)